Weather observations for the past three days for
Alva, Alva Regional Airport
Imperial (Metric)
Date Time (cdt) Wind (mph) Vis. (mi.) Weather Sky Cond. Temperature (ºF) Relative Humidity Wind Chill (°F) Heat Index (°F) Pressure Precipitation (in)
Air Dwpt 6 hour altimeter (in) sea level (mb) 1 hr 3 hr 6 hr
Max. Min.
25 13:15 SE 6 G 13 10.00 Fair CLR 93.2 60.8 34% 93 30.16 0.0
25 12:55 Vrbl 3 G 12 10.00 Fair CLR 93.2 60.8 34% 93 30.16 0.0
25 12:35 S 9 9.00 Fair CLR 93.2 60.8 34% 93 30.16 0.0
25 12:15 S 9 9.00 Fair CLR 91.4 60.8 36% 91 30.16 0.0
25 11:55 Calm 10.00 Fair CLR 89.6 64.4 43% 91 30.17 0.0
25 11:35 SW 6 10.00 Fair CLR 89.6 64.4 43% 91 30.17 0.0
25 11:15 SW 6 10.00 Fair CLR 89.6 66.2 46% 92 30.18 0.0
25 10:55 SW 7 10.00 Fair CLR 87.8 66.2 49% 90 30.18 0.0
25 10:35 SW 6 10.00 Fair CLR 86 68 55% 89 30.18 0.0
25 10:15 SW 7 10.00 Fair CLR 86 68 55% 89 30.18 0.0
25 09:55 SW 7 10.00 Fair CLR 82.4 68 62% 85 30.19 0.0
25 09:35 S 3 10.00 Fair CLR 80.6 68 66% 83 30.19 0.0
25 09:15 Calm 9.00 Fair CLR 78.8 68 70% 81 30.19 0.0
25 08:55 Calm 8.00 Fair CLR 77 68 74% 79 30.19 0.0
25 08:35 Calm 9.00 Fair CLR 75.2 66.2 74% 77 30.19 0.0
25 08:15 Calm 9.00 Fair CLR 73.4 66.2 78% 30.18 0.0
25 07:55 Calm 9.00 Fair CLR 73.4 66.2 78% 30.18 0.0
25 07:35 SW 6 9.00 Fair CLR 69.8 66.2 88% 30.17 0.0
25 07:15 W 6 7.00 Fair CLR 68 64.4 88% 30.17 0.0
25 06:55 W 7 4.00 Fog/Mist CLR 68 64.4 88% 30.16 0.0
25 06:35 W 8 9.00 Fair CLR 66.2 64.4 94% 30.16 0.0
25 06:15 W 6 9.00 Fair CLR 68 64.4 88% 30.16 0.0
25 05:50 W 5 10.00 Fair CLR 69.8 64.4 83% 30.16 0.0
25 05:35 W 5 9.00 Fair CLR 69.8 64.4 83% 30.16 0.0
25 05:15 W 6 9.00 Fair CLR 68 64.4 88% 30.16 0.0
25 04:55 W 5 9.00 Fair CLR 69.8 66.2 88% 30.16 0.0
25 04:35 Calm 9.00 Fair CLR 69.8 66.2 88% 30.16 0.0
25 04:15 W 5 9.00 Fair CLR 69.8 64.4 83% 30.15 0.0
25 03:55 SW 3 9.00 Fair CLR 69.8 66.2 88% 30.15 0.0
25 03:35 SW 5 8.00 Fair CLR 69.8 66.2 88% 30.15 0.0
25 03:15 SW 8 10.00 Fair CLR 71.6 66.2 83% 30.15 0.0
25 02:55 SW 7 10.00 Fair CLR 71.6 66.2 83% 30.15 0.0
25 02:35 SW 8 10.00 Fair CLR 71.6 66.2 83% 30.15 0.0
25 02:10 SW 8 10.00 Fair CLR 71.6 64.4 78% 30.15 0.0
25 01:55 S 7 10.00 Fair CLR 71.6 64.4 78% 30.15 0.0
25 01:35 S 7 10.00 Fair CLR 73.4 64.4 74% 30.15 0.0
25 01:15 S 8 10.00 Fair CLR 73.4 64.4 74% 30.15 0.0
25 00:55 S 8 9.00 Fair CLR 73.4 64.4 74% 30.16 0.0
25 00:35 S 10 10.00 Fair CLR 75.2 64.4 69% 77 30.15 0.0
25 00:15 S 8 10.00 Fair CLR 75.2 64.4 69% 77 30.15 0.0
24 23:55 S 8 4.00 Fair with Haze CLR 75.2 64.4 69% 77 30.15 0.0
24 23:35 S 9 6.00 Fair with Haze CLR 77 64.4 65% 79 30.15 0.0
24 23:15 S 10 10.00 Fair CLR 77 64.4 65% 79 30.14 0.0
24 22:55 S 9 10.00 Fair CLR 78.8 62.6 58% 80 30.14 0.0
24 22:35 SE 10 10.00 Fair CLR 80.6 62.6 54% 82 30.13 0.0
24 22:15 SE 10 10.00 Fair CLR 80.6 60.8 51% 81 30.12 0.0
24 21:55 SE 10 10.00 Fair CLR 80.6 60.8 51% 81 30.12 0.0
24 21:35 SE 6 10.00 Fair CLR 82.4 62.6 51% 83 30.11 0.0
24 21:15 SE 7 10.00 Fair CLR 84.2 60.8 45% 84 30.11 0.0
24 20:55 SE 9 10.00 Fair CLR 86 60.8 43% 86 30.11 0.0
24 20:35 SE 7 10.00 Fair CLR 86 60.8 43% 86 30.1 0.0
24 20:15 SE 9 G 15 9.00 Partly Cloudy SCT080 89.6 60.8 38% 90 30.1 0.0
24 19:35 SE 12 10.00 A Few Clouds FEW080 91.4 59 34% 91 30.1 0.0
24 19:15 SE 12 10.00 Fair CLR 91.4 60.8 36% 91 30.1 0.0
24 18:50 SE 7 10.00 Fair CLR 91.4 60.8 36% 91 30.1 0.0
24 18:35 E 10 10.00 A Few Clouds FEW080 91.4 59 34% 91 30.1 0.0
24 18:15 S 6 10.00 Mostly Cloudy BKN080 BKN095 93.2 59 32% 93 30.1 0.0
24 17:55 Vrbl 3 10.00 Mostly Cloudy BKN090 93.2 60.8 34% 93 30.1 0.0
24 17:35 Vrbl 3 10.00 Partly Cloudy SCT095 93.2 60.8 34% 93 30.1 0.0
24 17:15 NE 10 10.00 Partly Cloudy FEW080 SCT100 93.2 59 32% 93 30.11 0.0
24 16:55 NE 7 10.00 Mostly Cloudy BKN075 93.2 60.8 34% 93 30.11 0.0
24 16:35 NE 7 10.00 Mostly Cloudy BKN075 BKN100 93.2 60.8 34% 93 30.11 0.0
24 16:15 Vrbl 5 10.00 A Few Clouds FEW075 FEW085 FEW100 95 59 30% 94 30.11 0.0
24 15:55 Calm 10.00 A Few Clouds FEW075 FEW085 93.2 59 32% 93 30.11 0.0
24 15:35 S 7 10.00 Partly Cloudy SCT075 SCT090 93.2 59 32% 93 30.12 0.0
24 15:15 SW 7 G 16 10.00 Partly Cloudy SCT070 93.2 59 32% 93 30.12 0.0
24 14:55 S 8 G 14 10.00 Partly Cloudy FEW070 SCT085 93.2 60.8 34% 93 30.12 0.0
24 14:35 Vrbl 5 G 13 10.00 NULL NULL 91.4 60.8 36% 91 30.13 0.0
24 14:15 Vrbl 5 10.00 NULL NULL 91.4 60.8 36% 91 30.13 0.0
24 13:55 SW 6 G 12 10.00 Partly Cloudy FEW070 SCT080 91.4 60.8 36% 91 30.14 0.0
24 13:35 S 6 10.00 A Few Clouds FEW065 91.4 60.8 36% 91 30.14 0.0
24 13:15 Vrbl 5 G 13 10.00 Fair CLR 91.4 60.8 36% 91 30.15 0.0
24 12:55 Vrbl 7 10.00 Fair CLR 91.4 62.6 38% 92 30.15 0.0
24 12:35 S 8 10.00 Fair CLR 91.4 64.4 41% 93 30.15 0.0
24 12:15 Vrbl 6 10.00 Fair CLR 89.6 62.6 41% 90 30.16 0.0
24 11:55 Vrbl 3 10.00 Fair CLR 87.8 66.2 49% 90 30.16 0.0
24 11:35 S 6 10.00 Fair CLR 87.8 64.4 46% 89 30.16 0.0
24 11:15 S 7 10.00 Fair CLR 86 66.2 52% 88 30.17 0.0
24 10:55 SW 7 10.00 Fair CLR 86 66.2 52% 88 30.17 0.0
24 10:35 S 8 10.00 Fair CLR 86 68 55% 89 30.17 0.0
24 10:15 S 8 10.00 Fair CLR 84.2 69.8 62% 88 30.17 0.0
24 09:55 SW 7 10.00 Fair CLR 82.4 69.8 66% 86 30.17 0.0
24 09:35 Vrbl 5 10.00 Fair CLR 78.8 69.8 74% 81 30.17 0.0
24 09:15 Calm 10.00 Fair CLR 77 68 74% 79 30.17 0.0
24 08:55 Calm 9.00 A Few Clouds FEW065 75.2 68 78% 76 30.17 0.0
24 08:35 Calm 9.00 Fair CLR 73.4 68 83% 30.16 0.0
24 08:15 Calm 8.00 Fair CLR 73.4 68 83% 30.15 0.0
24 07:55 Calm 8.00 Fair CLR 69.8 68 94% 30.15 0.0
24 07:35 Calm 9.00 Fair CLR 69.8 66.2 88% 30.15 0.0
24 07:15 Calm 9.00 A Few Clouds FEW065 68 66.2 94% 30.15 0.0
24 06:55 SW 5 9.00 Mostly Cloudy BKN065 68 64.4 88% 30.14 0.0
24 06:35 Calm 9.00 Mostly Cloudy BKN065 66.2 64.4 94% 30.14 0.0
24 06:15 W 5 9.00 Fair CLR 66.2 64.4 94% 30.14 0.0
24 05:55 W 6 9.00 Fair CLR 66.2 64.4 94% 30.14 0.0
24 05:35 W 6 9.00 Fair CLR 68 66.2 94% 30.14 0.0
24 05:15 SW 5 9.00 Fair CLR 68 64.4 88% 30.13 0.0
24 04:55 SW 6 10.00 Fair CLR 68 64.4 88% 30.13 0.0
24 04:35 SW 6 9.00 Fair CLR 66.2 66.2 100% 30.13 0.0
24 04:15 SW 3 10.00 Fair CLR 68 66.2 94% 30.12 0.0
24 03:55 S 5 10.00 Fair CLR 68 64.4 88% 30.12 0.0
24 03:35 S 6 10.00 Fair CLR 69.8 66.2 88% 30.12 0.0
24 03:15 S 6 10.00 Fair CLR 69.8 66.2 88% 30.12 0.0
24 02:55 S 6 10.00 Fair CLR 69.8 66.2 88% 30.12 0.0
24 02:35 S 6 10.00 Fair CLR 69.8 66.2 88% 30.12 0.0
24 02:15 S 6 10.00 Fair CLR 71.6 66.2 83% 30.12 0.0
24 01:55 S 6 10.00 Fair CLR 69.8 66.2 88% 30.12 0.0
24 01:35 S 7 10.00 Fair CLR 69.8 66.2 88% 30.12 0.0
24 01:15 S 7 10.00 Fair CLR 69.8 66.2 88% 30.12 0.0
24 00:55 S 7 10.00 Fair CLR 71.6 66.2 83% 30.12 0.0
24 00:35 S 7 10.00 Fair CLR 73.4 64.4 74% 30.11 0.0
24 00:15 SE 7 10.00 Fair CLR 71.6 66.2 83% 30.11 0.0
23 23:55 S 9 10.00 Fair CLR 73.4 66.2 78% 30.11 0.0
23 23:35 S 8 10.00 Fair CLR 73.4 64.4 74% 30.1 0.0
23 23:15 Calm 10.00 Fair CLR 73.4 66.2 78% 30.1 0.0
23 22:55 S 7 10.00 Fair CLR 75.2 64.4 69% 77 30.09 0.0
23 22:35 SE 7 10.00 Fair CLR 77 64.4 65% 79 30.08 0.0
23 22:15 SE 7 10.00 Fair CLR 78.8 64.4 61% 81 30.08 0.0
23 21:55 SE 7 10.00 Fair CLR 78.8 64.4 61% 81 30.07 0.0
23 21:35 SE 8 10.00 Partly Cloudy SCT070 80.6 64.4 58% 82 30.07 0.0
23 21:15 SE 8 10.00 A Few Clouds FEW070 80.6 64.4 58% 82 30.06 0.0
23 20:55 S 7 10.00 A Few Clouds FEW070 82.4 64.4 55% 84 30.06 0.0
23 20:35 SE 6 10.00 A Few Clouds FEW070 82.4 64.4 55% 84 30.05 0.0
23 20:15 SE 6 10.00 Fair CLR 84.2 66.2 55% 87 30.05 0.0
23 19:55 S 7 10.00 Fair CLR 86 66.2 52% 88 30.04 0.0
23 19:35 S 7 10.00 Fair CLR 86 64.4 49% 87 30.04 0.0
23 19:15 S 6 10.00 Fair CLR 87.8 64.4 46% 89 30.04 0.0
23 18:55 SE 7 10.00 Fair CLR 87.8 64.4 46% 89 30.04 0.0
23 18:35 S 7 10.00 Fair CLR 87.8 64.4 46% 89 30.04 0.0
23 18:15 S 9 10.00 Fair CLR 87.8 64.4 46% 89 30.04 0.0
23 17:55 S 12 10.00 Fair CLR 87.8 64.4 46% 89 30.04 0.0
23 17:35 S 5 10.00 Fair CLR 87.8 64.4 46% 89 30.04 0.0
23 17:15 S 6 10.00 Fair CLR 87.8 64.4 46% 89 30.04 0.0
23 16:55 SE 8 10.00 Fair CLR 87.8 66.2 49% 90 30.04 0.0 0.02
23 16:35 S 5 10.00 Fair CLR 86 66.2 52% 88 30.05 0.0
23 16:15 S 6 G 12 9.00 Light Rain CLR 82.4 68 62% 85 30.05 0.0
23 15:55 S 17 G 38 0.75 Heavy Rain Haze SCT060 BKN075 80.6 69.8 70% 84 30.06 0.0 0.11
23 15:35 SE 12 10.00 NULL NULL 86 62.6 46% 87 30.06 0.0
23 15:15 E 9 G 17 10.00 Partly Cloudy SCT060 SCT070 87.8 62.6 43% 88 30.06 0.0
23 14:55 SE 12 10.00 Mostly Cloudy SCT060 BKN075 BKN085 87.8 62.6 43% 88 30.06 0.0
23 14:35 SE 7 10.00 Mostly Cloudy FEW060 BKN075 87.8 60.8 40% 88 30.06 0.0
23 14:15 SE 10 10.00 Partly Cloudy SCT060 SCT110 87.8 60.8 40% 88 30.06 0.0
23 13:55 S 8 G 14 10.00 Fair CLR 89.6 62.6 41% 90 30.07 0.0
23 13:35 S 7 G 13 10.00 Fair CLR 87.8 62.6 43% 88 30.07 0.0
23 13:15 SE 7 G 17 10.00 Partly Cloudy FEW050 SCT080 SCT085 87.8 62.6 43% 88 30.07 0.0
23 12:55 SE 10 10.00 Partly Cloudy SCT050 86 64.4 49% 87 30.08 0.0
23 12:35 S 8 10.00 Fair CLR 86 64.4 49% 87 30.08 0.0
23 12:15 Vrbl 5 10.00 Fair CLR 86 64.4 49% 87 30.09 0.0
23 11:55 S 6 10.00 Fair CLR 84.2 66.2 55% 87 30.09 0.0
23 11:35 Vrbl 7 10.00 Fair CLR 84.2 64.4 51% 86 30.09 0.0
23 11:15 Vrbl 7 10.00 Fair CLR 82.4 66.2 58% 85 30.08 0.0
23 10:55 SW 7 10.00 Fair CLR 80.6 66.2 62% 83 30.08 0.0
23 10:35 Vrbl 3 10.00 Fair CLR 78.8 66.2 65% 81 30.08 0.0
23 10:15 SW 7 10.00 Fair CLR 78.8 68 70% 81 30.08 0.0
23 09:55 Calm 10.00 Fair CLR 77 66.2 69% 79 30.09 0.0
23 09:35 SW 5 10.00 Fair CLR 75.2 66.2 74% 77 30.08 0.0
23 09:15 S 5 10.00 Fair CLR 75.2 68 78% 76 30.08 0.0
23 08:55 S 5 10.00 Fair CLR 73.4 69.8 89% 30.07 0.0
23 08:35 Calm 10.00 Fair CLR 71.6 69.8 94% 30.07 0.0
23 08:15 N 3 8.00 Light Rain CLR 71.6 69.8 94% 30.08 0.0
23 07:55 N 8 10.00 A Few Clouds FEW080 71.6 68 88% 30.08 0.0
23 07:35 N 6 10.00 Partly Cloudy SCT080 69.8 68 94% 30.08 0.0
23 07:15 N 5 10.00 A Few Clouds FEW090 69.8 69.8 100% 30.07 0.0
23 06:55 W 5 9.00 Partly Cloudy SCT090 SCT110 69.8 68 94% 30.06 0.0
23 06:35 W 7 9.00 Mostly Cloudy BKN085 BKN110 69.8 68 94% 30.06 0.0
23 06:15 W 6 7.00 Light Rain FEW055 BKN080 BKN110 69.8 68 94% 30.05 0.0
23 05:55 SW 3 10.00 Mostly Cloudy FEW055 SCT070 BKN080 71.6 68 88% 30.05 0.0
23 05:35 SW 5 10.00 Overcast OVC070 71.6 68 88% 30.05 0.0
23 05:15 S 3 10.00 Overcast BKN070 BKN075 OVC100 71.6 68 88% 30.05 0.0
23 04:55 SE 3 10.00 Overcast BKN070 BKN090 OVC110 71.6 68 88% 30.05 0.0
23 04:35 E 5 10.00 Overcast SCT070 BKN090 OVC110 71.6 68 88% 30.04 0.0
23 04:15 NE 5 10.00 Overcast BKN070 OVC090 71.6 68 88% 30.04 0.0
23 03:55 NE 5 10.00 Overcast BKN070 OVC080 71.6 68 88% 30.04 0.0
23 03:35 NE 6 10.00 Overcast OVC070 71.6 68 88% 30.04 0.0
23 03:15 NE 6 10.00 Overcast SCT075 BKN095 OVC120 71.6 68 88% 30.05 0.0
23 02:55 NE 7 10.00 Partly Cloudy SCT090 SCT110 71.6 66.2 83% 30.05 0.0
23 02:35 NE 7 10.00 Partly Cloudy SCT080 SCT090 71.6 66.2 83% 30.04 0.0
23 02:15 N 5 10.00 Mostly Cloudy BKN080 BKN095 BKN120 71.6 66.2 83% 30.04 0.0
23 01:35 NE 5 10.00 Mostly Cloudy BKN090 71.6 66.2 83% 30.04 0.0
23 01:15 Calm 10.00 A Few Clouds FEW100 71.6 66.2 83% 30.04 0.0
23 00:55 NE 5 10.00 Fair CLR 71.6 66.2 83% 30.04 0.0
23 00:35 N 6 10.00 Fair CLR 71.6 64.4 78% 30.04 0.0
23 00:15 N 7 10.00 Fair CLR 71.6 64.4 78% 30.04 0.0
22 23:55 N 3 10.00 Fair CLR 71.6 64.4 78% 30.04 0.0
22 23:35 NE 3 10.00 Fair CLR 73.4 64.4 74% 30.03 0.0
22 23:10 NE 7 10.00 Fair CLR 73.4 64.4 74% 30.03 0.0
22 22:55 NE 9 10.00 Fair CLR 73.4 64.4 74% 30.04 0.0
22 22:35 N 8 10.00 A Few Clouds FEW070 73.4 62.6 69% 30.04 0.0
22 22:15 N 9 10.00 Mostly Cloudy BKN070 75.2 62.6 65% 77 30.05 0.0
22 21:55 NW 9 G 23 9.00 Mostly Cloudy BKN070 BKN080 77 64.4 65% 79 30.04 0.0
22 21:35 Vrbl 7 10.00 Mostly Cloudy BKN075 BKN085 78.8 60.8 54% 80 30.03 0.0
22 21:15 E 5 10.00 A Few Clouds FEW080 78.8 60.8 54% 80 30.02 0.0
22 20:55 E 6 10.00 Partly Cloudy SCT090 80.6 60.8 51% 81 30.03 0.0
22 20:35 E 5 10.00 Partly Cloudy SCT090 80.6 60.8 51% 81 30.03 0.0
22 20:15 E 6 10.00 Fair CLR 82.4 59 45% 82 30.02 0.0
22 19:55 E 6 10.00 Fair CLR 84.2 59 43% 84 30.01 0.0
22 19:35 E 9 10.00 Fair CLR 86 57.2 38% 85 30 0.0
22 19:15 E 6 10.00 Fair CLR 86 57.2 38% 85 29.99 0.0
22 18:55 NE 7 10.00 Fair CLR 86 57.2 38% 85 29.99 0.0
22 18:35 E 8 10.00 Fair CLR 86 57.2 38% 85 29.98 0.0
22 18:15 E 9 10.00 Fair CLR 87.8 57.2 35% 87 29.98 0.0
22 17:55 SE 3 G 15 10.00 A Few Clouds FEW065 87.8 57.2 35% 87 29.98 0.0
22 17:30 SE 7 G 16 10.00 Partly Cloudy SCT065 86 59 40% 85 29.98 0.0
22 17:15 Vrbl 6 G 13 10.00 Fair CLR 87.8 59 38% 87 29.98 0.0
22 16:55 E 6 G 13 10.00 Fair CLR 86 59 40% 85 29.99 0.0
22 16:35 E 8 10.00 Fair CLR 87.8 60.8 40% 88 29.99 0.0
22 16:15 E 8 10.00 Fair CLR 87.8 60.8 40% 88 30.01 0.0
22 15:50 Vrbl 6 10.00 Fair CLR 87.8 60.8 40% 88 30.02 0.0
22 15:35 E 12 10.00 Fair CLR 87.8 60.8 40% 88 30.02 0.0
22 15:15 NE 9 G 15 10.00 Fair CLR 86 60.8 43% 86 30.03 0.0
22 14:55 SE 7 G 16 10.00 Fair CLR 86 62.6 46% 87 30.05 0.0
22 14:35 Vrbl 7 10.00 Fair CLR 86 64.4 49% 87 30.05 0.0
22 14:15 E 8 10.00 Fair CLR 84.2 62.6 48% 85 30.06 0.0
22 13:55 E 8 10.00 Fair CLR 84.2 64.4 51% 86 30.06 0.0
22 13:35 Vrbl 6 G 13 10.00 A Few Clouds FEW044 84.2 64.4 51% 86 30.07 0.0
Date Time (cdt) Wind (mph) Vis. (mi.) Weather Sky Cond. Air Dwpt Max. Min. Relative Humidity Wind Chill (°F) Heat Index (°F) altimeter (in) sea level (mb) 1 hr 3 hr 6 hr
6 hour
Temperature (ºF) Pressure Precipitation (in)